Time,TemperatureF,DewpointF,PressureIn,WindDirection,WindDirectionDegrees,WindSpeedMPH,WindSpeedGustMPH,Humidity,HourlyPrecipIn,Conditions,Clouds,dailyrainin,SoftwareType,DateUTC
2013-01-18 00:04:00,27.7,25.9,30.59,NW,315,0.0,0.0,93,0.00,,,0.00,WUHU216HW,2013-01-18 08:04:00,
2013-01-18 00:29:00,27.4,25.6,30.58,NW,315,0.0,0.0,93,0.00,,,0.00,WUHU216HW,2013-01-18 08:29:00,
2013-01-18 00:34:00,27.4,25.6,30.58,NW,315,0.0,0.0,93,0.00,,,0.00,WUHU216HW,2013-01-18 08:34:00,
2013-01-18 00:59:00,27.0,25.0,30.58,NW,315,0.0,0.0,92,0.00,,,0.00,WUHU216HW,2013-01-18 08:59:00,
2013-01-18 01:04:00,27.0,25.0,30.58,NW,315,0.0,0.0,92,0.00,,,0.00,WUHU216HW,2013-01-18 09:04:00,
2013-01-18 01:29:00,26.8,24.9,30.58,NW,315,0.0,0.0,92,0.00,,,0.00,WUHU216HW,2013-01-18 09:29:00,
2013-01-18 01:34:00,26.8,24.9,30.58,NW,315,0.0,0.0,92,0.00,,,0.00,WUHU216HW,2013-01-18 09:34:00,
2013-01-18 01:59:00,26.1,24.1,30.58,NW,315,0.0,0.0,92,0.00,,,0.00,WUHU216HW,2013-01-18 09:59:00,
2013-01-18 02:04:00,26.1,24.1,30.58,NW,315,0.0,0.0,92,0.00,,,0.00,WUHU216HW,2013-01-18 10:04:00,
2013-01-18 02:29:00,26.1,24.1,30.58,NW,315,0.0,0.0,92,0.00,,,0.00,WUHU216HW,2013-01-18 10:29:00,
2013-01-18 02:34:00,26.1,24.1,30.58,NW,315,0.0,0.0,92,0.00,,,0.00,WUHU216HW,2013-01-18 10:34:00,
2013-01-18 02:59:00,25.6,23.6,30.57,NW,315,0.0,0.0,92,0.00,,,0.00,WUHU216HW,2013-01-18 10:59:00,
2013-01-18 03:04:00,25.6,23.6,30.57,NW,315,0.0,0.0,92,0.00,,,0.00,WUHU216HW,2013-01-18 11:04:00,
2013-01-18 03:29:00,25.7,23.8,30.57,NW,315,0.0,0.0,92,0.00,,,0.00,WUHU216HW,2013-01-18 11:29:00,
2013-01-18 03:34:00,25.7,23.8,30.57,NW,315,0.0,0.0,92,0.00,,,0.00,WUHU216HW,2013-01-18 11:34:00,
2013-01-18 03:59:00,25.7,23.8,30.57,NW,315,0.0,0.0,92,0.00,,,0.00,WUHU216HW,2013-01-18 11:59:00,
2013-01-18 04:04:00,25.7,23.8,30.57,NW,315,0.0,0.0,92,0.00,,,0.00,WUHU216HW,2013-01-18 12:04:00,
2013-01-18 04:29:00,25.6,23.6,30.57,NW,315,0.0,0.0,92,0.00,,,0.00,WUHU216HW,2013-01-18 12:29:00,
2013-01-18 04:34:00,25.6,23.6,30.57,NW,315,0.0,0.0,92,0.00,,,0.00,WUHU216HW,2013-01-18 12:34:00,
2013-01-18 04:59:00,25.2,23.2,30.56,NW,315,0.0,0.0,92,0.00,,,0.00,WUHU216HW,2013-01-18 12:59:00,
2013-01-18 05:04:00,25.2,23.2,30.56,NW,315,0.0,0.0,92,0.00,,,0.00,WUHU216HW,2013-01-18 13:04:00,
2013-01-18 05:29:00,24.1,22.2,30.56,NW,315,0.0,0.0,92,0.00,,,0.00,WUHU216HW,2013-01-18 13:29:00,
2013-01-18 05:34:00,24.1,22.2,30.56,NW,315,0.0,0.0,92,0.00,,,0.00,WUHU216HW,2013-01-18 13:34:00,
2013-01-18 05:59:00,23.8,21.8,30.56,NW,315,0.0,0.0,92,0.00,,,0.00,WUHU216HW,2013-01-18 13:59:00,
2013-01-18 06:04:00,23.8,21.8,30.56,NW,315,0.0,0.0,92,0.00,,,0.00,WUHU216HW,2013-01-18 14:04:00,
2013-01-18 06:29:00,23.2,21.3,30.55,NW,315,0.0,0.0,92,0.00,,,0.00,WUHU216HW,2013-01-18 14:29:00,
2013-01-18 06:34:00,23.2,21.3,30.55,NW,315,0.0,0.0,92,0.00,,,0.00,WUHU216HW,2013-01-18 14:34:00,
2013-01-18 06:59:00,23.0,21.1,30.56,NW,315,0.0,0.0,92,0.00,,,0.00,WUHU216HW,2013-01-18 14:59:00,
2013-01-18 07:04:00,23.0,21.1,30.56,NW,315,0.0,0.0,92,0.00,,,0.00,WUHU216HW,2013-01-18 15:04:00,
2013-01-18 07:29:00,22.7,20.7,30.56,NW,315,0.0,0.0,92,0.00,,,0.00,WUHU216HW,2013-01-18 15:29:00,
2013-01-18 07:34:00,22.7,20.7,30.56,NW,315,0.0,0.0,92,0.00,,,0.00,WUHU216HW,2013-01-18 15:34:00,
2013-01-18 07:59:00,22.7,20.7,30.58,NW,315,0.0,0.0,92,0.00,,,0.00,WUHU216HW,2013-01-18 15:59:00,
2013-01-18 08:04:00,22.7,20.7,30.58,NW,315,0.0,0.0,92,0.00,,,0.00,WUHU216HW,2013-01-18 16:04:00,
2013-01-18 08:29:00,22.7,20.7,30.58,NW,315,0.0,0.0,92,0.00,,,0.00,WUHU216HW,2013-01-18 16:29:00,
2013-01-18 08:34:00,22.7,20.7,30.58,NW,315,0.0,0.0,92,0.00,,,0.00,WUHU216HW,2013-01-18 16:34:00,
2013-01-18 08:59:00,23.4,21.4,30.58,NW,315,0.0,0.0,92,0.00,,,0.00,WUHU216HW,2013-01-18 16:59:00,
2013-01-18 09:04:00,23.4,21.4,30.58,NW,315,0.0,0.0,92,0.00,,,0.00,WUHU216HW,2013-01-18 17:04:00,
2013-01-18 09:09:00,23.4,21.4,30.58,NW,315,0.0,0.0,92,0.00,,,0.00,WUHU216HW,2013-01-18 17:09:00,
2013-01-18 09:29:00,24.8,22.9,30.58,NW,315,0.0,0.0,92,0.00,,,0.00,WUHU216HW,2013-01-18 17:29:00,
2013-01-18 09:34:00,24.8,22.9,30.58,NW,315,0.0,0.0,92,0.00,,,0.00,WUHU216HW,2013-01-18 17:34:00,
2013-01-18 09:59:00,26.3,24.5,30.59,NW,315,0.0,0.0,93,0.00,,,0.00,WUHU216HW,2013-01-18 17:59:00,
2013-01-18 10:04:00,26.3,24.5,30.59,NW,315,0.0,0.0,93,0.00,,,0.00,WUHU216HW,2013-01-18 18:04:00,
2013-01-18 10:29:00,28.4,26.9,30.60,NW,315,0.0,0.0,94,0.00,,,0.00,WUHU216HW,2013-01-18 18:29:00,
2013-01-18 10:34:00,28.4,26.9,30.60,NW,315,0.0,0.0,94,0.00,,,0.00,WUHU216HW,2013-01-18 18:34:00,
2013-01-18 10:59:00,30.2,28.7,30.62,NW,315,0.0,0.0,94,0.00,,,0.00,WUHU216HW,2013-01-18 18:59:00,
2013-01-18 11:04:00,30.2,28.7,30.62,NW,315,0.0,0.0,94,0.00,,,0.00,WUHU216HW,2013-01-18 19:04:00,
2013-01-18 11:29:00,32.6,31.3,30.62,NW,315,0.4,0.4,95,0.00,,,0.00,WUHU216HW,2013-01-18 19:29:00,
2013-01-18 11:34:00,32.6,31.3,30.62,NW,315,0.4,0.4,95,0.00,,,0.00,WUHU216HW,2013-01-18 19:34:00,
2013-01-18 11:59:00,33.7,32.0,30.61,NW,315,0.0,0.0,94,0.00,,,0.00,WUHU216HW,2013-01-18 19:59:00,
2013-01-18 12:04:00,33.7,32.0,30.61,NW,315,0.0,0.0,94,0.00,,,0.00,WUHU216HW,2013-01-18 20:04:00,
2013-01-18 12:29:00,34.6,33.2,30.60,NNW,338,0.0,0.0,95,0.00,,,0.00,WUHU216HW,2013-01-18 20:29:00,
2013-01-18 12:34:00,34.6,33.2,30.60,NNW,338,0.0,0.0,95,0.00,,,0.00,WUHU216HW,2013-01-18 20:34:00,
2013-01-18 12:59:00,35.5,34.1,30.59,SW,225,0.0,0.0,95,0.00,,,0.00,WUHU216HW,2013-01-18 20:59:00,
2013-01-18 13:04:00,35.5,34.1,30.59,SW,225,0.0,0.0,95,0.00,,,0.00,WUHU216HW,2013-01-18 21:04:00,
2013-01-18 13:29:00,36.2,34.6,30.59,NNW,338,0.0,0.0,94,0.00,,,0.00,WUHU216HW,2013-01-18 21:29:00,
2013-01-18 13:34:00,36.2,34.6,30.59,NNW,338,0.0,0.0,94,0.00,,,0.00,WUHU216HW,2013-01-18 21:34:00,
2013-01-18 13:59:00,37.1,35.5,30.59,ENE,68,0.2,0.2,94,0.01,,,0.00,WUHU216HW,2013-01-18 21:59:00,
2013-01-18 14:04:00,37.1,35.5,30.59,ENE,68,0.2,0.2,94,0.01,,,0.00,WUHU216HW,2013-01-18 22:04:00,
2013-01-18 14:29:00,37.4,35.6,30.59,WNW,293,0.0,0.0,93,0.01,,,0.01,WUHU216HW,2013-01-18 22:29:00,
2013-01-18 14:34:00,37.4,35.6,30.59,WNW,293,0.0,0.0,93,0.01,,,0.01,WUHU216HW,2013-01-18 22:34:00,
2013-01-18 14:59:00,37.4,35.6,30.59,West,270,0.0,0.0,93,0.00,,,0.01,WUHU216HW,2013-01-18 22:59:00,
2013-01-18 15:04:00,37.4,35.6,30.59,West,270,0.0,0.0,93,0.00,,,0.01,WUHU216HW,2013-01-18 23:04:00,
2013-01-18 15:29:00,36.5,34.7,30.60,West,270,0.0,0.0,93,0.00,,,0.01,WUHU216HW,2013-01-18 23:29:00,
2013-01-18 15:34:00,36.5,34.7,30.60,West,270,0.0,0.0,93,0.00,,,0.01,WUHU216HW,2013-01-18 23:34:00,
2013-01-18 15:59:00,36.0,34.1,30.60,West,270,0.0,0.0,93,0.00,,,0.01,WUHU216HW,2013-01-18 23:59:00,
2013-01-18 16:04:00,36.0,34.1,30.60,West,270,0.0,0.0,93,0.00,,,0.01,WUHU216HW,2013-01-19 00:04:00,
2013-01-18 16:29:00,34.6,32.7,30.61,WNW,293,0.0,0.0,93,0.00,,,0.01,WUHU216HW,2013-01-19 00:29:00,
2013-01-18 16:34:00,34.6,32.7,30.61,WNW,293,0.0,0.0,93,0.00,,,0.01,WUHU216HW,2013-01-19 00:34:00,
2013-01-18 16:59:00,33.5,31.3,30.60,WNW,293,0.0,0.0,92,0.00,,,0.01,WUHU216HW,2013-01-19 00:59:00,
2013-01-18 17:04:00,33.5,31.3,30.60,WNW,293,0.0,0.0,92,0.00,,,0.01,WUHU216HW,2013-01-19 01:04:00,
2013-01-18 17:29:00,32.8,31.0,30.60,WNW,293,0.0,0.0,93,0.00,,,0.01,WUHU216HW,2013-01-19 01:29:00,
2013-01-18 17:34:00,32.8,31.0,30.60,WNW,293,0.0,0.0,93,0.00,,,0.01,WUHU216HW,2013-01-19 01:34:00,
2013-01-18 17:59:00,32.2,30.4,30.61,East,90,0.0,0.0,93,0.00,,,0.01,WUHU216HW,2013-01-19 01:59:00,
2013-01-18 18:04:00,32.2,30.4,30.61,East,90,0.0,0.0,93,0.00,,,0.01,WUHU216HW,2013-01-19 02:04:00,
2013-01-18 18:29:00,31.7,29.9,30.61,East,90,0.0,0.0,93,0.00,,,0.01,WUHU216HW,2013-01-19 02:29:00,
2013-01-18 18:34:00,31.7,29.9,30.61,East,90,0.0,0.0,93,0.00,,,0.01,WUHU216HW,2013-01-19 02:34:00,
2013-01-18 18:59:00,31.3,29.5,30.62,East,90,0.0,0.0,93,0.00,,,0.01,WUHU216HW,2013-01-19 02:59:00,
2013-01-18 19:04:00,31.3,29.5,30.62,East,90,0.0,0.0,93,0.00,,,0.01,WUHU216HW,2013-01-19 03:04:00,
2013-01-18 19:29:00,31.3,29.5,30.61,East,90,0.0,0.0,93,0.00,,,0.01,WUHU216HW,2013-01-19 03:29:00,
2013-01-18 19:34:00,31.3,29.5,30.61,East,90,0.0,0.0,93,0.00,,,0.01,WUHU216HW,2013-01-19 03:34:00,
2013-01-18 19:59:00,31.1,29.3,30.62,East,90,0.0,0.0,93,0.00,,,0.01,WUHU216HW,2013-01-19 03:59:00,
2013-01-18 20:04:00,31.1,29.3,30.62,East,90,0.0,0.0,93,0.00,,,0.01,WUHU216HW,2013-01-19 04:04:00,
2013-01-18 20:29:00,30.8,29.0,30.62,East,90,0.0,0.0,93,0.00,,,0.01,WUHU216HW,2013-01-19 04:29:00,
2013-01-18 20:34:00,30.8,29.0,30.62,East,90,0.0,0.0,93,0.00,,,0.01,WUHU216HW,2013-01-19 04:34:00,
2013-01-18 20:59:00,30.4,28.6,30.62,East,90,0.0,0.0,93,0.00,,,0.01,WUHU216HW,2013-01-19 04:59:00,
2013-01-18 21:00:00,30.4,28.6,30.62,East,90,0.0,0.0,93,0.00,,,0.01,WUHU216HW,2013-01-19 05:00:00,
2013-01-18 21:01:00,30.4,28.6,30.62,East,90,0.0,0.0,93,0.00,,,0.01,WUHU216HW,2013-01-19 05:01:00,
2013-01-18 21:02:00,30.4,28.6,30.62,East,90,0.0,0.0,93,0.00,,,0.01,WUHU216HW,2013-01-19 05:02:00,
2013-01-18 21:03:00,30.4,28.6,30.62,East,90,0.0,0.0,93,0.00,,,0.01,WUHU216HW,2013-01-19 05:03:00,
2013-01-18 21:08:00,30.4,28.6,30.62,East,90,0.0,0.0,93,0.00,,,0.01,WUHU216HW,2013-01-19 05:08:00,
2013-01-18 21:29:00,30.4,28.9,30.63,East,90,0.0,0.0,94,0.00,,,0.01,WUHU216HW,2013-01-19 05:29:00,
2013-01-18 21:34:00,30.4,28.9,30.63,East,90,0.0,0.0,94,0.00,,,0.01,WUHU216HW,2013-01-19 05:34:00,
2013-01-18 21:59:00,30.4,28.9,30.63,East,90,0.0,0.0,94,0.00,,,0.01,WUHU216HW,2013-01-19 05:59:00,
2013-01-18 22:04:00,30.4,28.9,30.63,East,90,0.0,0.0,94,0.00,,,0.01,WUHU216HW,2013-01-19 06:04:00,
2013-01-18 22:29:00,30.1,28.5,30.63,East,90,0.0,0.0,94,0.00,,,0.01,WUHU216HW,2013-01-19 06:29:00,
2013-01-18 22:34:00,30.1,28.5,30.63,East,90,0.0,0.0,94,0.00,,,0.01,WUHU216HW,2013-01-19 06:34:00,
2013-01-18 22:59:00,29.9,28.4,30.64,East,90,0.0,0.0,94,0.00,,,0.01,WUHU216HW,2013-01-19 06:59:00,
2013-01-18 23:04:00,29.9,28.4,30.64,East,90,0.0,0.0,94,0.00,,,0.01,WUHU216HW,2013-01-19 07:04:00,
2013-01-18 23:29:00,29.9,28.1,30.64,East,90,0.0,0.0,93,0.00,,,0.01,WUHU216HW,2013-01-19 07:29:00,
2013-01-18 23:34:00,29.9,28.1,30.64,East,90,0.0,0.0,93,0.00,,,0.01,WUHU216HW,2013-01-19 07:34:00,
2013-01-18 23:59:00,29.7,27.9,30.64,East,90,0.0,0.0,93,0.00,,,0.00,WUHU216HW,2013-01-19 07:59:00,